"Timestamp","TZ","WindDir_Mean (deg)","WindSpd_Mean (km/h)","WindSpd_Min (km/h)","WindSpd_Max (km/h)","Temp_Mean (deg)","RH_Mean (%)","MSLP_Mean (hPa)","Rain_Acc (mm)","Rain_Intensity (mm/h)","Hail_Acc (hits/cm2)","Hail_Intensity (hits/cm2hr)","Solar_Mean (W/m2)"
2023/07/01 00:00:00.011,n,206,3.24,2.52,6.84,11.2,50.5,1021.62,0,0,0,0,0.023537
2023/07/01 00:01:00.002,n,220,0.72,0.36,2.16,11.2,50.2,1021.62,0,0,0,0,0.021782
2023/07/01 00:02:00.002,n,176,1.8,1.08,2.16,11.2,50.5,1021.52,0,0,0,0,0.020027
2023/07/01 00:03:00.005,n,113,2.16,0.72,3.6,11.2,50.6,1021.52,0,0,0,0,0.023537
2023/07/01 00:04:00.007,n,205,0.72,0.36,1.08,11.2,51.5,1021.62,0,0,0,0,0.021782
2023/07/01 00:05:00.008,n,226,1.44,0.72,2.16,11.1,51.2,1021.62,0,0,0,0,0.024414
2023/07/01 00:06:00.010,n,81,1.8,1.08,2.16,11.1,51.3,1021.72,0,0,0,0,0.022659
2023/07/01 00:07:00.014,n,265,4.32,3.96,4.68,11.1,51.1,1021.82,0,0,0,0,0.020943
2023/07/01 00:08:00.013,n,217,3.96,2.88,7.2,11,50.7,1021.82,0,0,0,0,0.025291
2023/07/01 00:09:00.015,n,216,2.16,1.44,3.24,11.1,51,1021.82,0,0,0,0,0.020027
2023/07/01 00:10:00.001,n,256,2.88,2.88,3.24,11.1,51.1,1021.92,0,0,0,0,0.020027
2023/07/01 00:11:00.003,n,278,5.4,2.16,6.48,11.1,50.7,1021.92,0,0,0,0,0.023537
2023/07/01 00:12:00.004,n,251,6.84,5.76,9.36,11.1,50.3,1021.92,0,0,0,0,0.020027
2023/07/01 00:13:00.005,n,277,7.2,5.76,7.92,11.1,50.4,1021.82,0,0,0,0,0.01915
2023/07/01 00:14:00.001,n,130,1.44,0.36,1.8,11.1,51.1,1021.72,0,0,0,0,0.017433
2023/07/01 00:15:00.001,n,199,2.16,0.72,2.52,11.1,51,1021.62,0,0,0,0,0.01915
2023/07/01 00:16:00.001,n,270,1.8,1.44,2.16,11.1,51.1,1021.52,0,0,0,0,0.020943
2023/07/01 00:17:00.001,n,252,3.96,3.6,4.32,11.1,51,1021.52,0,0,0,0,0.020027
2023/07/01 00:18:00.002,n,220,1.8,0.72,2.52,11.1,51.4,1021.62,0,0,0,0,0.020027
2023/07/01 00:19:00.002,n,190,3.6,2.88,5.04,11.1,51,1021.82,0,0,0,0,0.026169
2023/07/01 00:20:00.004,n,181,3.24,2.88,3.6,11.1,50.9,1021.92,0,0,0,0,0.027885
2023/07/01 00:21:00.006,n,245,6.84,6.12,7.56,11.1,50.5,1021.92,0,0,0,0,0.030518
2023/07/01 00:22:00.006,n,235,2.52,1.08,3.96,11.1,50.3,1021.92,0,0,0,0,0.027046
2023/07/01 00:23:00.001,n,286,4.68,2.52,5.76,11.1,50.5,1021.82,0,0,0,0,0.027046
2023/07/01 00:24:00.012,n,289,2.52,2.16,3.24,11.1,50.5,1021.82,0,0,0,0,0.027885
2023/07/01 00:25:00.001,n,235,2.52,1.8,2.88,11.1,50.7,1021.72,0,0,0,0,0.031395
2023/07/01 00:26:00.015,n,339,2.16,0.36,3.24,11.1,50.5,1021.72,0,0,0,0,0.027885
2023/07/01 00:27:00.015,n,265,1.8,1.8,2.16,11.1,50.8,1021.72,0,0,0,0,0.027046
2023/07/01 00:28:00.002,n,245,2.88,2.16,3.24,11.1,50.7,1021.72,0,0,0,0,0.026169
2023/07/01 00:29:00.001,n,254,1.44,0.72,1.8,11.1,50.4,1021.82,0,0,0,0,0.027046
2023/07/01 00:30:00.002,n,308,2.88,2.52,3.96,11.1,50.5,1021.82,0,0,0,0,0.030518
2023/07/01 00:31:00.008,n,244,1.8,1.44,2.16,11.1,50.7,1021.72,0,0,0,0,0.030518
2023/07/01 00:32:00.001,n,173,5.4,2.88,9,11.1,50.7,1021.72,0,0,0,0,0.024452
2023/07/01 00:33:00.002,n,193,4.68,4.32,5.04,11.1,50.7,1021.72,0,0,0,0,0.028801
2023/07/01 00:34:00.005,n,150,2.16,1.08,3.6,11.1,50.5,1021.72,0,0,0,0,0.031395
2023/07/01 00:35:00.005,n,211,4.32,3.6,5.4,11.2,51,1021.72,0,0,0,0,0.027046
2023/07/01 00:36:00.006,n,190,3.6,2.52,4.32,11.2,50.8,1021.72,0,0,0,0,0.026169
2023/07/01 00:37:00.002,n,152,2.16,1.44,3.24,11.2,51.1,1021.72,0,0,0,0,0.024452
2023/07/01 00:38:00.001,n,150,5.4,3.6,9.36,11.2,51.4,1021.72,0,0,0,0,0.028801
2023/07/01 00:39:00.002,n,225,3.24,2.88,3.96,11.1,51,1021.72,0,0,0,0,0.028801
2023/07/01 00:40:00.001,n,200,2.16,1.08,3.24,11.1,51.2,1021.72,0,0,0,0,0.025291
2023/07/01 00:41:00.001,n,185,5.04,3.96,9,11.1,51,1021.72,0,0,0,0,0.026169
2023/07/01 00:42:00.002,n,205,3.24,2.52,3.96,11.1,51.3,1021.72,0,0,0,0,0.026169
2023/07/01 00:43:00.014,n,300,1.08,0.36,1.08,11.1,51.4,1021.72,0,0,0,0,0.02182
2023/07/01 00:44:00.015,n,194,4.32,2.88,5.04,11.1,51.1,1021.72,0,0,0,0,0.026169
2023/07/01 00:45:00.002,n,153,6.84,3.96,9.36,11.1,51.1,1021.62,0,0,0,0,0.019188
2023/07/01 00:46:00.001,n,195,5.76,5.04,6.48,11.1,51.2,1021.62,0,0,0,0,0.024452
2023/07/01 00:47:00.001,n,164,8.64,5.4,11.16,11.1,51,1021.62,0,0,0,0,0.024452
2023/07/01 00:48:00.003,n,224,3.96,2.88,4.68,11.1,51,1021.62,0,0,0,0,0.023537
2023/07/01 00:49:00.003,n,192,5.76,5.04,7.2,11.1,50.8,1021.62,0,0,0,0,0.030518
2023/07/01 00:50:00.001,n,193,8.64,7.56,9.72,11.1,50.8,1021.62,0,0,0,0,0.032234
2023/07/01 00:51:00.001,n,207,3.96,2.88,5.04,11.2,50.6,1021.62,0,0,0,0,0.036621
2023/07/01 00:52:00.008,n,182,4.68,3.6,7.56,11.2,50.9,1021.62,0,0,0,0,0.039215
2023/07/01 00:53:00.006,n,214,3.24,2.16,3.6,11.2,51.4,1021.62,0,0,0,0,0.043564
2023/07/01 00:54:00.002,n,195,8.28,6.12,11.88,11.1,51,1021.62,0,0,0,0,0.043564
2023/07/01 00:55:00.001,n,215,1.8,1.8,2.16,11.1,51.2,1021.72,0,0,0,0,0.02964
2023/07/01 00:56:00.002,n,245,5.04,3.96,6.12,11.1,51.2,1021.72,0,0,0,0,0.03315
2023/07/01 00:57:00.002,n,266,4.68,3.96,5.76,11.1,51.5,1021.72,0,0,0,0,0.035706
2023/07/01 00:58:00.001,n,157,1.44,0.36,2.88,11,51.2,1021.72,0,0,0,0,0.038338
2023/07/01 00:59:00.008,n,250,6.48,5.76,7.56,11,51,1021.72,0,0,0,0,0.040092
2023/07/01 01:00:00.006,n,202,2.52,2.16,2.88,11,51.3,1021.72,0,0,0,0,0.044441
2023/07/01 01:01:00.004,n,201,4.68,2.52,7.2,11,51.3,1021.72,0,0,0,0,0.042686
2023/07/01 01:02:00.005,n,241,3.24,2.52,3.6,11,51.6,1021.72,0,0,0,0,0.045319
2023/07/01 01:03:00.014,n,214,8.64,7.2,13.32,11,51.2,1021.62,0,0,0,0,0.047913
2023/07/01 01:04:00.001,n,294,0.72,0.36,1.44,11,51.4,1021.62,0,0,0,0,0.047073
2023/07/01 01:05:00.001,n,241,2.52,0.72,3.6,11,50.8,1021.62,0,0,0,0,0.047913
2023/07/01 01:06:00.001,n,180,4.68,3.96,5.04,11,51.6,1021.62,0,0,0,0,0.026093
2023/07/01 01:07:00.002,n,175,6.12,1.44,11.52,11,51.4,1021.62,0,0,0,0,0.031357
2023/07/01 01:08:00.015,n,227,3.24,2.88,3.6,11,51.3,1021.62,0,0,0,0,0.033073
2023/07/01 01:09:00.003,n,238,2.52,2.16,2.88,11,51.3,1021.62,0,0,0,0,0.036583
2023/07/01 01:10:00.018,n,165,9,6.48,13.68,11,51.3,1021.62,0,0,0,0,0.040054
2023/07/01 01:11:00.006,n,170,3.96,2.52,8.64,11,51.2,1021.62,0,0,0,0,0.0383
2023/07/01 01:12:00.015,n,178,3.24,2.52,3.6,11,51.2,1021.52,0,0,0,0,0.03746
2023/07/01 01:13:00.001,n,157,8.28,5.4,11.52,11,51.3,1021.52,0,0,0,0,0.041809
2023/07/01 01:14:00.002,n,178,4.32,3.24,9.36,11,51.7,1021.52,0,0,0,0,0.043564
2023/07/01 01:15:00.006,n,177,8.64,6.12,14.04,11.1,51.4,1021.52,0,0,0,0,0.039215
2023/07/01 01:16:00.001,n,134,2.88,2.16,3.24,11.1,51.3,1021.52,0,0,0,0,0.044403
2023/07/01 01:17:00.001,n,269,3.6,3.24,4.32,11.1,51.4,1021.52,0,0,0,0,0.041809
2023/07/01 01:18:00.014,n,308,1.8,1.08,2.16,11.1,51.4,1021.52,0,0,0,0,0.041809
2023/07/01 01:19:00.010,n,194,5.4,5.04,6.12,11.1,51.5,1021.52,0,0,0,0,0.046997
2023/07/01 01:20:00.002,n,165,5.4,3.96,9.36,11.1,51.7,1021.52,0,0,0,0,0.04528
2023/07/01 01:21:00.007,n,139,1.08,0.72,2.88,11.1,51.4,1021.52,0,0,0,0,0.049629
2023/07/01 01:22:00.001,n,0,1.08,0.36,2.88,11,51,1021.52,0,0,0,0,0.049629
2023/07/01 01:23:00.001,n,179,3.6,3.24,4.68,11,51.2,1021.52,0,0,0,0,0.053139
2023/07/01 01:24:00.007,n,284,3.96,1.44,4.68,11,52.1,1021.52,0,0,0,0,0.027885
2023/07/01 01:25:00.002,n,252,2.88,1.44,5.4,11,51.2,1021.52,0,0,0,0,0.034866
2023/07/01 01:26:00.004,n,171,9,6.48,13.32,11,51.2,1021.52,0,0,0,0,0.034866
2023/07/01 01:27:00.004,n,255,1.8,0.72,3.24,11,51,1021.52,0,0,0,0,0.034866
2023/07/01 01:28:00.006,n,269,3.24,2.52,3.96,11,51.6,1021.52,0,0,0,0,0.036583
2023/07/01 01:29:00.008,n,136,2.16,1.8,2.88,11,51.9,1021.52,0,0,0,0,0.036583
2023/07/01 01:30:00.017,n,246,2.16,1.44,2.52,11,51.4,1021.52,0,0,0,0,0.03746
2023/07/01 01:31:00.001,n,210,1.44,0.72,2.88,11,51.9,1021.52,0,0,0,0,0.035706
2023/07/01 01:32:00.001,n,346,1.44,0.72,2.16,11,51.1,1021.62,0,0,0,0,0.035706
2023/07/01 01:33:00.001,n,277,2.16,1.8,2.52,11,50.9,1021.62,0,0,0,0,0.038338
2023/07/01 01:34:00.001,n,255,6.84,6.48,7.56,11,50.6,1021.62,0,0,0,0,0.03746
2023/07/01 01:35:00.005,n,275,5.76,4.68,6.84,11,50.7,1021.62,0,0,0,0,0.035706
2023/07/01 01:36:00.001,n,261,10.8,9.72,11.52,11,50.2,1021.62,0,0,0,0,0.039215
2023/07/01 01:37:00.007,n,135,1.8,1.08,2.88,11,50.4,1021.62,0,0,0,0,0.040054
2023/07/01 01:38:00.008,n,255,10.08,9,10.8,11,50,1021.52,0,0,0,0,0.040932
2023/07/01 01:39:00.016,n,148,1.8,1.44,2.52,11,50.1,1021.52,0,0,0,0,0.039215
2023/07/01 01:40:00.004,n,288,7.56,5.76,9.72,11,49.7,1021.52,0,0,0,0,0.040054
2023/07/01 01:41:00.005,n,215,2.88,2.88,3.24,11,50.2,1021.52,0,0,0,0,0.040054
2023/07/01 01:42:00.008,n,220,5.04,3.96,5.4,11.1,50,1021.52,0,0,0,0,0.040054
2023/07/01 01:43:00.010,n,287,5.4,4.68,6.12,11.1,49.9,1021.52,0,0,0,0,0.040932
2023/07/01 01:44:00.002,n,259,3.6,2.88,4.32,11.1,50.1,1021.52,0,0,0,0,0.043564
2023/07/01 01:45:00.002,n,245,4.68,4.32,5.04,11,50.1,1021.52,0,0,0,0,0.040054
2023/07/01 01:46:00.004,n,232,5.76,5.04,6.84,11.1,50.1,1021.52,0,0,0,0,0.03746
2023/07/01 01:47:00.004,n,281,1.08,0.72,1.44,11.1,50.2,1021.52,0,0,0,0,0.043564
2023/07/01 01:48:00.012,n,62,1.44,0.36,3.24,11.1,50.8,1021.52,0,0,0,0,0.041847
2023/07/01 01:49:00.002,n,173,6.12,1.44,11.52,11,51,1021.52,0,0,0,0,0.041847
2023/07/01 01:50:00.004,n,137,3.6,2.16,5.76,11,51.4,1021.52,0,0,0,0,0.042686
2023/07/01 01:51:00.001,n,261,2.52,0.72,4.68,11,51.1,1021.52,0,0,0,0,0.044441
2023/07/01 01:52:00.002,n,156,3.24,0.72,4.68,10.9,51.2,1021.52,0,0,0,0,0.047035
2023/07/01 01:53:00.001,n,226,5.76,3.6,7.2,10.9,51.1,1021.52,0,0,0,0,0.043564
2023/07/01 01:54:00.001,n,170,9,5.4,12.6,10.9,50.9,1021.52,0,0,0,0,0.040932
2023/07/01 01:55:00.013,n,203,4.68,3.6,4.68,10.9,51.3,1021.52,0,0,0,0,0.040932
2023/07/01 01:56:00.016,n,339,0.36,0.36,1.08,10.9,51.4,1021.52,0,0,0,0,0.042686
2023/07/01 01:57:00.019,n,268,3.96,3.24,4.68,10.9,51.4,1021.52,0,0,0,0,0.043564
2023/07/01 01:58:00.002,n,186,8.64,6.48,12.24,10.9,51.4,1021.42,0,0,0,0,0.044441
2023/07/01 01:59:00.001,n,177,2.16,1.8,2.52,10.9,51.8,1021.52,0,0,0,0,0.043564
2023/07/01 02:00:00.003,n,171,0.72,0.36,1.08,10.8,52.1,1021.42,0,0,0,0,0.041847
2023/07/01 02:01:00.001,n,146,7.92,5.4,10.8,10.8,52.3,1021.42,0,0,0,0,0.044441
2023/07/01 02:02:00.008,n,170,8.28,6.12,12.24,10.7,52.1,1021.42,0,0,0,0,0.046196
2023/07/01 02:03:00.007,n,273,2.16,1.8,2.88,10.7,52.5,1021.42,0,0,0,0,0.044441
2023/07/01 02:04:00.008,n,124,2.88,1.8,3.6,10.7,52.9,1021.42,0,0,0,0,0.044441
2023/07/01 02:05:00.007,n,184,1.8,0.36,2.88,10.6,52.9,1021.42,0,0,0,0,0.043564
2023/07/01 02:06:00.016,n,104,1.44,0.36,2.52,10.6,53.1,1021.42,0,0,0,0,0.04528
2023/07/01 02:07:00.001,n,151,6.12,3.96,11.88,10.6,52.8,1021.42,0,0,0,0,0.047035
2023/07/01 02:08:00.001,n,161,4.68,3.6,9.72,10.6,53.4,1021.42,0,0,0,0,0.042686
2023/07/01 02:09:00.001,n,158,5.04,4.32,10.08,10.5,53.3,1021.42,0,0,0,0,0.041847
2023/07/01 02:10:00.001,n,270,3.24,3.24,3.6,10.5,54,1021.52,0,0,0,0,0.04528
2023/07/01 02:11:00.001,n,138,1.44,0.72,1.8,10.5,53.5,1021.42,0,0,0,0,0.041847
2023/07/01 02:12:00.013,n,187,0.72,0.36,1.44,10.5,53.1,1021.42,0,0,0,0,0.044441
2023/07/01 02:13:00.014,n,147,1.08,0,2.52,10.4,53.5,1021.42,0,0,0,0,0.043564
2023/07/01 02:14:00.015,n,203,2.88,2.88,3.24,10.4,53.5,1021.42,0,0,0,0,0.04528
2023/07/01 02:15:00.008,n,79,3.6,2.52,4.68,10.4,53.5,1021.32,0,0,0,0,0.044441
2023/07/01 02:16:00.002,n,245,2.52,2.16,2.88,10.4,53.6,1021.32,0,0,0,0,0.046196
2023/07/01 02:17:00.004,n,234,2.52,1.44,3.24,10.4,53.7,1021.32,0,0,0,0,0.04528
2023/07/01 02:18:00.001,n,216,2.52,1.8,2.88,10.4,53.7,1021.32,0,0,0,0,0.04528
2023/07/01 02:19:00.003,n,162,5.76,4.32,10.8,10.4,53.4,1021.32,0,0,0,0,0.041847
2023/07/01 02:20:00.001,n,268,3.96,3.6,4.32,10.4,53.7,1021.32,0,0,0,0,0.04528
2023/07/01 02:21:00.008,n,268,1.8,1.44,2.16,10.4,54.3,1021.32,0,0,0,0,0.044441
2023/07/01 02:22:00.006,n,282,2.88,2.16,3.6,10.3,54.5,1021.32,0,0,0,0,0.047913
2023/07/01 02:23:00.002,n,276,5.04,4.32,6.48,10.3,53.5,1021.32,0,0,0,0,0.044441
2023/07/01 02:24:00.017,n,201,2.16,1.08,2.88,10.3,53.6,1021.42,0,0,0,0,0.040932
2023/07/01 02:25:00.001,n,276,6.12,5.76,6.84,10.3,53.4,1021.42,0,0,0,0,0.044441
2023/07/01 02:26:00.001,n,284,4.68,4.32,5.4,10.3,53.5,1021.42,0,0,0,0,0.040932
2023/07/01 02:27:00.001,n,283,4.32,3.24,5.76,10.3,53.2,1021.42,0,0,0,0,0.044441
2023/07/01 02:28:00.010,n,281,3.96,3.6,3.96,10.3,52.6,1021.42,0,0,0,0,0.044441
2023/07/01 02:29:00.003,n,281,5.04,4.32,5.76,10.3,52.7,1021.42,0,0,0,0,0.047035
2023/07/01 02:30:00.023,n,282,2.52,1.44,3.6,10.3,53.1,1021.42,0,0,0,0,0.04528
2023/07/01 02:31:00.003,n,253,4.68,3.96,5.76,10.3,52.8,1021.42,0,0,0,0,0.044441
2023/07/01 02:32:00.011,n,256,2.16,1.8,2.16,10.3,52.9,1021.52,0,0,0,0,0.043564
2023/07/01 02:33:00.017,n,272,6.12,5.76,6.84,10.3,52.9,1021.52,0,0,0,0,0.044441
2023/07/01 02:34:00.001,n,242,5.04,4.68,5.04,10.3,52.5,1021.52,0,0,0,0,0.044441
2023/07/01 02:35:00.001,n,202,1.08,0.36,1.08,10.3,52.8,1021.52,0,0,0,0,0.041847
2023/07/01 02:36:00.001,n,172,0.36,0,0.36,10.3,53.6,1021.42,0,0,0,0,0.041847
2023/07/01 02:37:00.008,n,269,3.6,2.52,3.96,10.3,53.9,1021.42,0,0,0,0,0.042686
2023/07/01 02:38:00.003,n,184,1.08,0.72,1.44,10.3,53.1,1021.42,0,0,0,0,0.040054
2023/07/01 02:39:00.010,n,245,6.12,5.4,6.48,10.2,52.9,1021.42,0,0,0,0,0.039215
2023/07/01 02:40:00.001,n,255,3.6,3.24,3.96,10.2,52.9,1021.42,0,0,0,0,0.04528
2023/07/01 02:41:00.021,n,269,2.52,2.16,3.24,10.2,53.8,1021.42,0,0,0,0,0.043564
2023/07/01 02:42:00.018,n,311,1.08,0.72,1.08,10.2,53.9,1021.42,0,0,0,0,0.042686
2023/07/01 02:43:00.001,n,279,1.44,0.72,2.52,10.2,53.8,1021.42,0,0,0,0,0.043564
2023/07/01 02:44:00.003,n,192,1.44,1.08,2.16,10.2,53.1,1021.42,0,0,0,0,0.040932
2023/07/01 02:45:00.006,n,222,1.8,1.44,2.16,10.2,53.1,1021.42,0,0,0,0,0.042686
2023/07/01 02:46:00.001,n,189,5.4,3.96,6.12,10.2,52.9,1021.42,0,0,0,0,0.041847
2023/07/01 02:47:00.002,n,178,0.72,0.36,1.08,10.2,52.9,1021.42,0,0,0,0,0.041847
2023/07/01 02:48:00.012,n,178,2.88,1.8,3.96,10.2,52.9,1021.42,0,0,0,0,0.042686
2023/07/01 02:49:00.005,n,267,5.04,4.68,5.4,10.3,52.9,1021.42,0,0,0,0,0.043564
2023/07/01 02:50:00.010,n,231,6.12,5.4,6.48,10.3,52.5,1021.32,0,0,0,0,0.038338
2023/07/01 02:51:00.008,n,144,2.52,0.36,4.68,10.3,52.8,1021.32,0,0,0,0,0.040054
2023/07/01 02:52:00.001,n,268,8.28,6.48,9.36,10.3,52.3,1021.32,0,0,0,0,0.040932
2023/07/01 02:53:00.001,n,193,0.36,0,0.72,10.3,52.7,1021.32,0,0,0,0,0.036583
2023/07/01 02:54:00.007,n,215,3.96,3.6,4.32,10.3,52.5,1021.32,0,0,0,0,0.040932
2023/07/01 02:55:00.002,n,278,5.4,3.96,6.84,10.3,52.2,1021.22,0,0,0,0,0.039215
2023/07/01 02:56:00.001,n,275,2.88,1.8,3.96,10.3,52.3,1021.22,0,0,0,0,0.041847
2023/07/01 02:57:00.001,n,297,1.8,0.72,3.96,10.3,53.2,1021.22,0,0,0,0,0.039215
2023/07/01 02:58:00.007,n,193,2.52,1.8,2.88,10.3,52.3,1021.22,0,0,0,0,0.038338
2023/07/01 02:59:00.011,n,285,2.52,2.16,2.88,10.4,52.3,1021.22,0,0,0,0,0.040054
2023/07/01 03:00:00.009,n,195,3.96,3.24,8.28,10.4,52.3,1021.22,0,0,0,0,0.040054
2023/07/01 03:01:00.001,n,156,1.08,0,2.16,10.4,52.4,1021.22,0,0,0,0,0.038338
2023/07/01 03:02:00.001,n,236,4.68,3.96,5.4,10.4,52.4,1021.22,0,0,0,0,0.038338
2023/07/01 03:03:00.006,n,243,3.24,2.52,4.32,10.4,52.2,1021.22,0,0,0,0,0.038338
2023/07/01 03:04:00.003,n,118,1.44,1.08,2.16,10.4,52.3,1021.22,0,0,0,0,0.038338
2023/07/01 03:05:00.003,n,178,4.32,3.24,10.440002,10.4,52.4,1021.22,0,0,0,0,0.038338
2023/07/01 03:06:00.018,n,241,3.96,3.6,4.68,10.4,52.4,1021.22,0,0,0,0,0.035706
2023/07/01 03:07:00.005,n,148,4.32,3.6,4.68,10.4,52.5,1021.22,0,0,0,0,0.036583
2023/07/01 03:08:00.015,n,200,5.76,4.32,6.84,10.4,52.6,1021.22,0,0,0,0,0.038338
2023/07/01 03:09:00.013,n,187,2.88,0.72,7.92,10.4,52.7,1021.22,0,0,0,0,0.038338
2023/07/01 03:10:00.001,n,133,5.76,5.04,6.12,10.4,52.8,1021.22,0,0,0,0,0.038338
2023/07/01 03:11:00.001,n,163,2.52,1.44,3.6,10.4,53,1021.22,0,0,0,0,0.040932
2023/07/01 03:12:00.004,n,240,1.44,1.08,1.8,10.4,52.7,1021.22,0,0,0,0,0.038338
2023/07/01 03:13:00.009,n,195,1.8,0.72,3.24,10.4,52.7,1021.32,0,0,0,0,0.039215
2023/07/01 03:14:00.014,n,214,0.72,0.72,1.08,10.5,53.1,1021.32,0,0,0,0,0.03746
2023/07/01 03:15:00.004,n,96,0.36,0,0.72,10.4,53.2,1021.42,0,0,0,0,0.034866
2023/07/01 03:16:00.011,n,264,3.24,2.88,3.6,10.4,54.2,1021.42,0,0,0,0,0.03746
2023/07/01 03:17:00.001,n,277,2.16,1.08,3.24,10.4,53.4,1021.42,0,0,0,0,0.040932
2023/07/01 03:18:00.021,n,177,3.24,2.52,3.96,10.4,53.4,1021.52,0,0,0,0,0.038338
2023/07/01 03:19:00.001,n,261,5.04,4.32,6.48,10.4,53.3,1021.52,0,0,0,0,0.03746
2023/07/01 03:20:00.001,n,257,5.04,4.32,5.4,10.4,53.1,1021.52,0,0,0,0,0.03746
2023/07/01 03:21:00.001,n,282,1.44,1.08,1.8,10.4,53.3,1021.52,0,0,0,0,0.036583
2023/07/01 03:22:00.001,n,31,2.88,0.36,4.32,10.4,53.7,1021.52,0,0,0,0,0.035706
2023/07/01 03:23:00.001,n,111,0.36,0,0.72,10.4,53.6,1021.62,0,0,0,0,0.03746
2023/07/01 03:24:00.002,n,286,5.04,4.32,5.4,10.4,53.1,1021.52,0,0,0,0,0.038338
2023/07/01 03:25:00.002,n,260,8.28,7.56,8.64,10.4,52.7,1021.52,0,0,0,0,0.034866
2023/07/01 03:26:00.012,n,214,1.8,1.44,2.52,10.4,53,1021.42,0,0,0,0,0.035706
2023/07/01 03:27:00.015,n,240,2.52,1.8,2.88,10.4,53,1021.32,0,0,0,0,0.040054
2023/07/01 03:28:00.002,n,248,8.64,7.2,10.440002,10.4,52.7,1021.32,0,0,0,0,0.035706
2023/07/01 03:29:00.005,n,168,1.8,1.8,2.52,10.4,53,1021.22,0,0,0,0,0.038338
2023/07/01 03:30:00.003,n,216,1.08,0.36,2.16,10.4,53,1021.12,0,0,0,0,0.036583
2023/07/01 03:31:00.004,n,233,0.72,0.36,1.08,10.3,53,1021.12,0,0,0,0,0.038338
2023/07/01 03:32:00.002,n,231,5.04,4.32,5.76,10.3,53.2,1021.02,0,0,0,0,0.03746
2023/07/01 03:33:00.013,n,290,1.8,1.44,2.16,10.3,53.3,1021.02,0,0,0,0,0.03746
2023/07/01 03:34:00.001,n,277,2.16,1.44,2.88,10.3,53.3,1021.02,0,0,0,0,0.034866
2023/07/01 03:35:00.016,n,245,4.32,3.96,5.04,10.3,52.9,1021.12,0,0,0,0,0.038338
2023/07/01 03:36:00.011,n,232,3.96,3.24,4.32,10.3,53,1021.12,0,0,0,0,0.039215
2023/07/01 03:37:00.001,n,268,2.88,1.44,4.68,10.3,53.2,1021.12,0,0,0,0,0.036583
2023/07/01 03:38:00.001,n,272,3.6,3.24,3.96,10.3,53.1,1021.12,0,0,0,0,0.036583
2023/07/01 03:39:00.004,n,271,3.96,2.88,4.32,10.3,53.4,1021.12,0,0,0,0,0.035706
2023/07/01 03:40:00.010,n,208,2.52,2.16,2.88,10.3,53.1,1021.12,0,0,0,0,0.03746
2023/07/01 03:41:00.021,n,204,0.72,0.36,1.08,10.3,53.2,1021.12,0,0,0,0,0.03746
2023/07/01 03:42:00.008,n,250,3.24,2.16,3.96,10.3,53.1,1021.12,0,0,0,0,0.040932
2023/07/01 03:43:00.011,n,273,3.96,3.24,3.96,10.2,53,1021.12,0,0,0,0,0.03746
2023/07/01 03:44:00.002,n,259,3.96,1.8,4.68,10.2,53.1,1021.02,0,0,0,0,0.038338
2023/07/01 03:45:00.003,n,257,4.32,3.6,5.04,10.2,53.1,1021.02,0,0,0,0,0.040054
2023/07/01 03:46:00.001,n,264,5.04,4.32,5.4,10.2,53,1021.02,0,0,0,0,0.038338
2023/07/01 03:47:00.001,n,264,1.08,0.72,1.8,10.2,53.3,1021.02,0,0,0,0,0.036583
2023/07/01 03:48:00.005,n,288,2.16,1.44,2.88,10.2,53.6,1021.12,0,0,0,0,0.038338
2023/07/01 03:49:00.001,n,295,3.6,3.24,4.68,10.2,53.7,1021.12,0,0,0,0,0.036583
2023/07/01 03:50:00.001,n,224,2.16,1.8,2.88,10.2,53.4,1021.12,0,0,0,0,0.039215
2023/07/01 03:51:00.012,n,210,1.44,0.36,2.16,10.2,53.7,1021.12,0,0,0,0,0.039215
2023/07/01 03:52:00.005,n,258,1.8,1.08,2.16,10.2,53.7,1021.12,0,0,0,0,0.034866
2023/07/01 03:53:00.016,n,243,2.16,1.44,3.6,10.2,54.1,1021.12,0,0,0,0,0.040054
2023/07/01 03:54:00.016,n,269,3.24,1.44,5.04,10.2,53.7,1021.12,0,0,0,0,0.03746
2023/07/01 03:55:00.002,n,293,2.88,1.44,4.32,10.2,53.6,1021.12,0,0,0,0,0.034866
2023/07/01 03:56:00.001,n,183,4.32,3.96,4.68,10.2,54,1021.12,0,0,0,0,0.03746
2023/07/01 03:57:00.002,n,170,2.52,1.44,3.6,10.2,54.1,1021.12,0,0,0,0,0.036583
2023/07/01 03:58:00.007,n,206,5.76,4.32,6.12,10.2,54,1021.12,0,0,0,0,0.03746
2023/07/01 03:59:00.001,n,248,0.36,0,0.72,10.2,54.3,1021.12,0,0,0,0,0.033073
2023/07/01 04:00:00.003,n,146,2.52,2.52,3.96,10.2,54.3,1021.12,0,0,0,0,0.033989
2023/07/01 04:01:00.008,n,150,0.72,0.36,0.72,10.2,54.3,1021.12,0,0,0,0,0.034866
2023/07/01 04:02:00.005,n,261,1.44,0.36,3.24,10.2,54.6,1021.12,0,0,0,0,0.033989
2023/07/01 04:03:00.004,n,326,1.8,1.44,2.52,10.1,54.4,1021.12,0,0,0,0,0.031357
2023/07/01 04:04:00.002,n,288,6.12,5.4,7.2,10.1,54.8,1021.12,0,0,0,0,0.033989
2023/07/01 04:05:00.002,n,240,1.44,1.08,2.16,10.1,54.6,1021.12,0,0,0,0,0.032234
2023/07/01 04:06:00.001,n,233,3.24,2.88,3.6,10.1,54.6,1021.22,0,0,0,0,0.035706
2023/07/01 04:07:00.002,n,269,1.44,1.08,1.8,10.1,54.8,1021.22,0,0,0,0,0.031357
2023/07/01 04:08:00.001,n,244,2.52,2.16,2.88,10.1,54.7,1021.22,0,0,0,0,0.033989
2023/07/01 04:09:00.008,n,262,0.72,0.36,1.08,10,55.2,1021.32,0,0,0,0,0.032234
2023/07/01 04:10:00.014,n,230,2.88,2.52,3.24,10,55,1021.32,0,0,0,0,0.033073
2023/07/01 04:11:00.007,n,232,2.16,1.44,2.88,10,55,1021.32,0,0,0,0,0.033073
2023/07/01 04:12:00.003,n,228,2.88,2.52,3.24,10,55.3,1021.22,0,0,0,0,0.031357
2023/07/01 04:13:00.006,n,268,0.72,0.36,1.08,10,55.1,1021.22,0,0,0,0,0.033073
2023/07/01 04:14:00.005,n,260,3.24,2.88,3.6,10,55.3,1021.22,0,0,0,0,0.034866
2023/07/01 04:15:00.001,n,255,1.8,1.44,2.52,10,55.8,1021.22,0,0,0,0,0.032234
2023/07/01 04:16:00.001,n,207,1.08,0.72,1.44,10,55.9,1021.12,0,0,0,0,0.033989
2023/07/01 04:17:00.001,n,294,3.24,2.88,3.6,10,56.6,1021.12,0,0,0,0,0.031357
2023/07/01 04:18:00.016,n,262,3.96,3.24,5.76,9.9,56.5,1021.12,0,0,0,0,0.033073
2023/07/01 04:19:00.003,n,211,2.88,1.8,4.32,9.9,56.1,1021.12,0,0,0,0,0.033989
2023/07/01 04:20:00.009,n,171,3.96,3.6,4.32,9.9,55.8,1021.12,0,0,0,0,0.032234
2023/07/01 04:21:00.011,n,298,1.08,0.72,1.08,9.9,55.8,1021.02,0,0,0,0,0.032234
2023/07/01 04:22:00.001,n,200,1.8,1.08,2.52,9.9,56.6,1021.02,0,0,0,0,0.031357
2023/07/01 04:23:00.001,n,288,1.08,1.08,1.44,9.9,56.6,1021.02,0,0,0,0,0.033989
2023/07/01 04:24:00.002,n,247,2.52,1.08,3.24,9.9,56.5,1021.02,0,0,0,0,0.030518
2023/07/01 04:25:00.004,n,213,1.08,0.36,1.44,9.9,57.5,1021.02,0,0,0,0,0.031357
2023/07/01 04:26:00.004,n,257,3.6,1.8,4.68,9.9,56.3,1021.02,0,0,0,0,0.031357
2023/07/01 04:27:00.005,n,274,2.88,2.88,3.96,9.9,55.8,1021.02,0,0,0,0,0.030518
2023/07/01 04:28:00.016,n,277,1.44,0.72,1.8,9.9,56.3,1021.02,0,0,0,0,0.032234
2023/07/01 04:29:00.001,n,250,3.6,3.24,3.96,9.9,56.1,1021.02,0,0,0,0,0.031357
2023/07/01 04:30:00.004,n,237,3.96,3.24,4.32,9.9,55.7,1021.02,0,0,0,0,0.030518
2023/07/01 04:31:00.001,n,244,1.08,0.72,1.08,9.9,55.8,1021.02,0,0,0,0,0.02964
2023/07/01 04:32:00.008,n,196,1.08,0.72,1.44,9.8,56,1021.02,0,0,0,0,0.028725
2023/07/01 04:33:00.001,n,263,0.72,0.36,1.44,9.8,55.9,1021.02,0,0,0,0,0.028725
2023/07/01 04:34:00.005,n,194,2.88,2.52,3.24,9.8,56,1021.02,0,0,0,0,0.033073
2023/07/01 04:35:00.006,n,241,0.72,0.36,1.08,9.8,56.2,1020.92,0,0,0,0,0.027008
2023/07/01 04:36:00.012,n,205,0.72,0.36,1.08,9.8,56.1,1020.92,0,0,0,0,0.027008
2023/07/01 04:37:00.015,n,235,2.16,1.08,2.88,9.8,56,1020.82,0,0,0,0,0.030518
2023/07/01 04:38:00.014,n,171,2.88,2.52,3.96,9.8,56.2,1020.72,0,0,0,0,0.027885
2023/07/01 04:39:00.008,n,182,4.32,2.88,5.04,9.8,56.2,1020.62,0,0,0,0,0.027008
2023/07/01 04:40:00.002,n,172,3.96,3.24,4.68,9.8,56,1020.62,0,0,0,0,0.028725
2023/07/01 04:41:00.002,n,162,11.16,6.84,15.84,9.8,55.9,1020.62,0,0,0,0,0.025291
2023/07/01 04:42:00.002,n,156,4.68,4.32,5.4,9.8,56,1020.62,0,0,0,0,0.026131
2023/07/01 04:43:00.008,n,167,4.32,2.16,6.48,9.8,56,1020.62,0,0,0,0,0.025291
2023/07/01 04:44:00.001,n,205,2.52,2.16,2.88,9.8,56,1020.62,0,0,0,0,0.027008
2023/07/01 04:45:00.013,n,167,3.24,3.24,3.96,9.8,56.1,1020.62,0,0,0,0,0.027885
2023/07/01 04:46:00.005,n,150,2.16,1.08,2.52,9.8,56.2,1020.72,0,0,0,0,0.035706
2023/07/01 04:47:00.008,n,156,4.32,3.96,4.68,9.8,56.4,1020.72,0,0,0,0,0.023537
2023/07/01 04:48:00.009,n,174,3.96,3.6,4.32,9.7,56.3,1020.72,0,0,0,0,0.023537
2023/07/01 04:49:00.006,n,198,1.8,0.72,2.16,9.7,56.3,1020.72,0,0,0,0,0.025253
2023/07/01 04:50:00.001,n,122,3.24,2.88,4.32,9.7,56.4,1020.62,0,0,0,0,0.028725
2023/07/01 04:51:00.001,n,162,5.04,4.68,5.76,9.7,56.4,1020.62,0,0,0,0,0.029602
2023/07/01 04:52:00.001,n,154,5.04,4.32,5.76,9.7,56.5,1020.62,0,0,0,0,0.029602
2023/07/01 04:53:00.017,n,173,4.68,4.32,4.68,9.7,56.3,1020.62,0,0,0,0,0.026131
2023/07/01 04:54:00.001,n,179,4.32,4.32,4.68,9.7,56.5,1020.62,0,0,0,0,0.02697
2023/07/01 04:55:00.013,n,193,3.96,3.96,4.32,9.6,56.6,1020.62,0,0,0,0,0.026131
2023/07/01 04:56:00.005,n,213,1.8,1.44,2.16,9.6,56.8,1020.72,0,0,0,0,0.02697
2023/07/01 04:57:00.015,n,256,2.88,2.52,3.6,9.6,56.9,1020.72,0,0,0,0,0.025253